| time (UTC) | temp F | wind direction | speed MPH | gust MPH | rain 1hr in | rain 24hr in | rain mn in | humidity % | barometer mb |
| 20260505021510 | 65 | 32 | 6.0 | 14.0 | 0.00 | 0.00 | 0.00 | 62 | 1011.7 |
| 20260505020056 | 65 | 25 | 3.0 | 9.0 | 0.00 | 0.00 | 0.00 | 60 | 1011.5 |
| 20260505014518 | 65 | 15 | 1.0 | 7.0 | 0.00 | 0.00 | 0.00 | 61 | 1011.2 |
| 20260505013108 | 65 | 17 | 4.0 | 8.0 | 0.00 | 0.00 | 0.00 | 62 | 1011.3 |
| 20260505011526 | 65 | 358 | 2.0 | 10.0 | 0.00 | 0.00 | 0.00 | 62 | 1011.2 |
| 20260505010109 | 65 | 20 | 3.0 | 10.0 | 0.00 | 0.00 | 0.00 | 61 | 1011.2 |
| 20260505004538 | 65 | 319 | 1.0 | 7.0 | 0.00 | 0.00 | 0.00 | 60 | 1011.0 |
| 20260505003115 | 66 | 29 | 1.0 | 7.0 | 0.00 | 0.00 | 0.00 | 58 | 1011.1 |
| 20260505001554 | 67 | 29 | 3.0 | 13.0 | 0.00 | 0.00 | 0.00 | 55 | 1011.0 |
| 20260505000014 | 67 | 24 | 6.0 | 12.0 | 0.00 | 0.00 | 0.00 | 53 | 1011.0 |
| 20260504234631 | 67 | 8 | 2.0 | 13.0 | 0.00 | 0.00 | 0.00 | 51 | 1011.0 |
| 20260504233011 | 68 | 29 | 3.0 | 8.0 | 0.00 | 0.00 | 0.00 | 50 | 1011.1 |
| 20260504231614 | 68 | 36 | 4.0 | 10.0 | 0.00 | 0.00 | 0.00 | 49 | 1011.1 |
| 20260504230025 | 69 | 49 | 5.0 | 14.0 | 0.00 | 0.00 | 0.00 | 46 | 1011.1 |
| 20260504224621 | 70 | 319 | 5.0 | 15.0 | 0.00 | 0.00 | 0.00 | 44 | 1011.0 |
| 20260504221634 | 72 | 356 | 3.0 | 12.0 | 0.00 | 0.00 | 0.00 | 43 | 1011.0 |
| 20260504220052 | 72 | 15 | 4.0 | 14.0 | 0.00 | 0.00 | 0.00 | 41 | 1011.0 |
| 20260504214632 | 73 | 339 | 6.0 | 14.0 | 0.00 | 0.00 | 0.00 | 40 | 1011.0 |
| 20260504213052 | 73 | 308 | 7.0 | 14.0 | 0.00 | 0.00 | 0.00 | 41 | 1011.0 |
| 20260504211501 | 73 | 13 | 3.0 | 12.0 | 0.00 | 0.00 | 0.00 | 42 | 1010.8 |
| 20260504210053 | 72 | 15 | 5.0 | 20.0 | 0.00 | 0.00 | 0.00 | 41 | 1011.0 |
| 20260504204640 | 72 | 10 | 7.0 | 18.0 | 0.00 | 0.00 | 0.00 | 40 | 1011.1 |
| 20260504203039 | 72 | 18 | 8.0 | 16.0 | 0.00 | 0.00 | 0.00 | 38 | 1011.1 |
| 20260504201632 | 72 | 344 | 7.0 | 15.0 | 0.00 | 0.00 | 0.00 | 39 | 1011.3 |
| 20260504200043 | 72 | 301 | 5.0 | 18.0 | 0.00 | 0.00 | 0.00 | 39 | 1011.5 |
| 20260504194504 | 71 | 29 | 5.0 | 12.0 | 0.00 | 0.00 | 0.00 | 40 | 1011.9 |
| 20260504193053 | 71 | 10 | 8.0 | 16.0 | 0.00 | 0.00 | 0.00 | 40 | 1012.1 |
| 20260504191509 | 70 | 320 | 5.0 | 13.0 | 0.00 | 0.00 | 0.00 | 40 | 1012.2 |
| 20260504190101 | 70 | 298 | 5.0 | 12.0 | 0.00 | 0.00 | 0.00 | 41 | 1012.4 |
| 20260504184511 | 69 | 26 | 6.0 | 16.0 | 0.00 | 0.00 | 0.00 | 39 | 1012.7 |
| 20260504183102 | 70 | 20 | 5.0 | 14.0 | 0.00 | 0.00 | 0.00 | 39 | 1012.9 |
| 20260504181523 | 69 | 287 | 5.0 | 11.0 | 0.00 | 0.00 | 0.00 | 41 | 1013.1 |
| 20260504180115 | 69 | 25 | 4.0 | 13.0 | 0.00 | 0.00 | 0.00 | 43 | 1013.4 |
| 20260504174519 | 68 | 17 | 6.0 | 14.0 | 0.00 | 0.00 | 0.00 | 44 | 1013.6 |
| 20260504173111 | 67 | 25 | 5.0 | 9.0 | 0.00 | 0.00 | 0.00 | 46 | 1013.9 |
| 20260504171536 | 66 | 332 | 4.0 | 9.0 | 0.00 | 0.00 | 0.00 | 48 | 1014.1 |
| 20260504170105 | 66 | 285 | 4.0 | 8.0 | 0.00 | 0.00 | 0.00 | 45 | 1014.1 |
| 20260504081614 | 51 | 69 | 0.0 | 2.0 | 0.00 | 0.00 | 0.00 | 61 | 1016.6 |
| 20260504070108 | 52 | 65 | 2.0 | 4.0 | 0.00 | 0.00 | 0.00 | 58 | 1016.7 |
| 20260504044502 | 50 | 63 | 0.0 | 1.0 | 0.00 | 0.00 | 0.00 | 57 | 1016.9 |
| 20260504043056 | 51 | 64 | 0.0 | 2.0 | 0.00 | 0.00 | 0.00 | 58 | 1016.8 |
| 20260504041510 | 50 | 63 | 1.0 | 3.0 | 0.00 | 0.00 | 0.00 | 62 | 1016.8 |
| 20260504040056 | 49 | 75 | 0.0 | 2.0 | 0.00 | 0.00 | 0.00 | 67 | 1016.7 |
| 20260504034516 | 48 | 75 | 0.0 | 1.0 | 0.00 | 0.00 | 0.00 | 68 | 1016.5 |
| 20260504033101 | 49 | 75 | 0.0 | 1.0 | 0.00 | 0.00 | 0.00 | 66 | 1016.3 |
| 20260504031524 | 49 | 75 | 0.0 | 1.0 | 0.00 | 0.00 | 0.00 | 66 | 1016.2 |
| 20260504030124 | 49 | 75 | 0.0 | 0.0 | 0.00 | 0.00 | 0.00 | 65 | 1016.2 |
| 20260504024542 | 50 | 75 | 0.0 | 0.0 | 0.00 | 0.00 | 0.00 | 64 | 1016.2 |
| 20260504023002 | 50 | 75 | 0.0 | 0.0 | 0.00 | 0.00 | 0.00 | 64 | 1016.1 |